Hourly Data Report for October 29, 2013

All times are specified in Local Standard Time (LST). Add 1 hour to adjust for Daylight Saving Time where and when it is observed.

PENTICTON A
BRITISH COLUMBIA

49°27'45.000" N
119°36'08.000" W
344.40 m
1126146
71889
YYF

Download Data

Hourly Data (October 2013)
Hourly Data Report for October 29, 2013
Temp Definition
°C
Dew Point Temp Definition
°C
Rel Hum Definition
%
Wind Dir Definition
10's deg

Wind Spd Definition
km/h
Visibility Definition
km
Stn Press Definition
kPa
Hmdx Definition


Wind Chill Definition


Weather Definition


TIME
00:00 Legend Double Dagger 1.2 -4.3 67 1 11 24.1 97.72     LegendNANA
01:00 Legend Double Dagger 2.3 -4.2 62 1 13 24.1 97.72     Clear
02:00 Legend Double Dagger 1.4 -4.5 65 1 12 24.1 97.69     LegendNANA
03:00 Legend Double Dagger -0.6 -4.7 74 36 10 24.1 97.68   -4 LegendNANA
04:00 Legend Double Dagger 0.0 -4.6 71 1 12 24.1 97.69   -4 Clear
05:00 Legend Double Dagger -1.7 -5.0 78 2 6 24.1 97.71   -4 LegendNANA
06:00 Legend Double Dagger -2.0 -4.5 83 33 8 24.1 97.69   -5 LegendNANA
07:00 Legend Double Dagger -0.6 -4.3 76 35 17 24.1 97.69   -6 Mainly Clear
08:00 Legend Double Dagger 2.0 -2.9 70 35 10 24.1 97.72     LegendNANA
09:00 Legend Double Dagger 4.6 -1.2 66 32 5 24.1 97.71     LegendNANA
10:00 Legend Double Dagger 6.3 -0.7 61 35 13 24.1 97.66     Mainly Clear
11:00 Legend Double Dagger 7.2 -0.5 58 35 8 24.1 97.62     LegendNANA
12:00 Legend Double Dagger 8.0 -1.2 52 35 11 24.1 97.54     LegendNANA
13:00 Legend Double Dagger 8.7 -2.0 47 32 4 24.1 97.46     Clear
14:00 Legend Double Dagger 9.3 -3.3 41 2 9 24.1 97.40     LegendNANA
15:00 Legend Double Dagger 8.7 -1.4 49 33 10 24.1 97.41     LegendNANA
16:00 Legend Double Dagger 5.5 -1.2 62 31 6 24.1 97.40     Clear
17:00 Legend Double Dagger 1.8 -2.0 76 1 1 24.1 97.40     LegendNANA
18:00 Legend Double Dagger 1.6 -2.0 77 36 4 24.1 97.45     LegendNANA
19:00 Legend Double Dagger 1.0 -2.4 78 3 1 24.1 97.47     Clear
20:00 Legend Double Dagger -1.4 -4.4 80 2 3 24.1 97.46   -2 LegendNANA
21:00 Legend Double Dagger -0.6 -3.5 81 1 5 24.1 97.52   -2 LegendNANA
22:00 Legend Double Dagger -2.5 -5.7 79 1 2 24.1 97.51   -3 Clear
23:00 Legend Double Dagger -3.1 -5.0 87 4 5 24.1 97.53   -5 LegendNANA

Notes on Data Quality.

Legend

  • E = Estimated
  • M = Missing
  • NA = Not Available
  • ‡ = Partner data that is not subject to review by the National Climate Archives
Date modified: